FW8945 Weather Reports


time (UTC)temp
C
wind
direction
speed
KPH
gust
KPH
rain 1hr
cm
rain 24hr
cm
rain mn
cm
humidity
%
barometer
mb
20260505210054 28 167 4.8 29.0 0.00 0.00 0.00 30 1005.1
20260505204602 28 119 4.8 20.9 0.00 0.00 0.00 31 1005.1
20260505203058 28 239 0.0 24.1 0.00 0.00 0.00 31 1005.2
20260505201600 28 111 3.2 17.7 0.00 0.00 0.00 32 1005.4
20260505194609 28 0 3.2 20.9 0.00 0.00 0.00 33 1005.3
20260505193054 28 163 3.2 16.1 0.00 0.00 0.00 33 1005.4
20260505191554 28 164 0.0 19.3 0.00 0.00 0.00 34 1005.7
20260505190057 28 200 3.2 25.7 0.00 0.00 0.00 32 1005.9
20260505184553 27 136 3.2 20.9 0.00 0.00 0.00 36 1006.1
20260505183055 28 0 1.6 16.1 0.00 0.00 0.00 37 1006.5
20260505181600 27 136 3.2 24.1 0.00 0.00 0.00 37 1006.5
20260505180058 27 203 1.6 14.5 0.00 0.00 0.00 39 1006.6
20260505174606 27 166 1.6 17.7 0.00 0.00 0.00 39 1006.8
20260505173057 27 0 3.2 14.5 0.00 0.00 0.00 40 1006.9
20260505171608 27 169 0.0 11.3 0.00 0.00 0.00 44 1007.2
20260505170057 26 0 1.6 12.9 0.00 0.00 0.00 44 1007.1
20260505164617 26 0 0.0 14.5 0.00 0.00 0.00 45 1007.3
20260505163102 25 0 0.0 11.3 0.00 0.00 0.00 45 1007.5
20260505161613 25 0 0.0 11.3 0.00 0.00 0.00 49 1007.5
20260505153055 23 188 0.0 8.0 0.00 0.00 0.00 52 1008.5
20260505151559 22 0 0.0 16.1 0.00 0.00 0.00 53 1008.7
20260505150106 22 0 0.0 12.9 0.00 0.00 0.00 54 1008.7
20260505130110 17 0 0.0 6.4 0.00 0.00 0.00 68 1008.9
20260505124602 16 0 0.0 9.7 0.00 0.00 0.00 71 1008.6
20260505123106 15 0 0.0 0.0 0.00 0.00 0.00 74 1008.7
20260505121553 14 128 0.0 0.0 0.00 0.00 0.00 78 1008.7
20260505120108 13 0 0.0 0.0 0.00 0.00 0.00 80 1009.0
20260505114556 13 0 0.0 1.6 0.00 0.00 0.00 81 1009.0
20260505113104 12 0 0.0 0.0 0.00 0.00 0.00 82 1008.8
20260505111555 12 0 0.0 0.0 0.00 0.00 0.00 83 1008.6
20260505110111 12 0 0.0 0.0 0.00 0.00 0.00 82 1008.6
20260505101550 10 0 0.0 0.0 0.00 0.00 0.00 83 1008.7
20260505100057 10 0 0.0 0.0 0.00 0.00 0.00 83 1008.4
20260505094559 10 0 0.0 0.0 0.00 0.00 0.00 81 1008.3
20260505093108 11 0 0.0 0.0 0.00 0.00 0.00 79 1008.2
20260505091553 11 0 0.0 0.0 0.00 0.00 0.00 80 1007.9
20260505090056 11 0 0.0 0.0 0.00 0.00 0.00 81 1007.9
20260505084555 10 0 0.0 0.0 0.00 0.00 0.00 82 1007.8
20260505083059 10 0 0.0 0.0 0.00 0.00 0.00 81 1007.8
20260505081623 11 0 0.0 0.0 0.00 0.00 0.00 79 1007.9
20260505080109 11 0 0.0 0.0 0.00 0.00 0.00 79 1007.8
20260505074605 11 0 0.0 0.0 0.00 0.00 0.00 77 1007.9
20260505073055 11 0 0.0 0.0 0.00 0.00 0.00 77 1007.9
20260505071617 11 0 0.0 0.0 0.00 0.00 0.00 76 1007.9
20260505070113 11 0 0.0 0.0 0.00 0.00 0.00 75 1007.9
20260505064600 12 0 0.0 0.0 0.00 0.00 0.00 75 1008.0
20260505063057 12 0 0.0 0.0 0.00 0.00 0.00 75 1008.0
20260505061602 12 0 0.0 0.0 0.00 0.00 0.00 73 1008.1
20260505054559 13 0 0.0 0.0 0.00 0.00 0.00 69 1008.2
20260505053103 13 0 0.0 0.0 0.00 0.00 0.00 67 1008.1
20260505051553 13 0 0.0 0.0 0.00 0.00 0.00 67 1008.3
20260505041555 15 0 0.0 1.6 0.00 0.00 0.00 61 1008.5
20260505040105 15 0 0.0 0.0 0.00 0.00 0.00 62 1008.5
20260505034555 15 0 0.0 0.0 0.00 0.00 0.00 58 1008.6
20260505033055 16 0 0.0 0.0 0.00 0.00 0.00 57 1008.5
20260505031558 16 0 0.0 0.0 0.00 0.00 0.00 55 1008.7
20260505030105 16 0 0.0 1.6 0.00 0.00 0.00 52 1008.7
20260505024558 16 0 0.0 0.0 0.00 0.00 0.00 51 1008.6
20260505023102 16 0 0.0 0.0 0.00 0.00 0.00 50 1008.6
20260505021602 16 0 0.0 1.6 0.00 0.00 0.00 50 1008.5
20260505020058 17 0 0.0 0.0 0.00 0.00 0.00 50 1008.7
20260505014553 17 0 0.0 0.0 0.00 0.00 0.00 48 1008.5
20260505013055 17 0 0.0 0.0 0.00 0.00 0.00 46 1008.5
20260505011556 18 0 0.0 0.0 0.00 0.00 0.00 45 1008.2
20260505010104 18 0 0.0 0.0 0.00 0.00 0.00 45 1008.0
20260505004555 18 0 0.0 1.6 0.00 0.00 0.00 44 1007.9
20260505003105 19 0 0.0 0.0 0.00 0.00 0.00 43 1007.8
20260505001554 19 0 0.0 0.0 0.00 0.00 0.00 43 1007.5
20260505000105 20 0 0.0 8.0 0.00 0.00 0.00 41 1007.3
20260504234557 20 0 0.0 3.2 0.00 0.00 0.00 40 1006.9
20260504233054 21 0 0.0 6.4 0.00 0.00 0.00 39 1006.6
20260504231551 21 0 0.0 3.2 0.00 0.00 0.00 38 1006.5
20260504230056 21 143 0.0 8.0 0.00 0.00 0.00 37 1006.3
20260504224601 21 0 0.0 6.4 0.00 0.00 0.00 37 1006.2
20260504223058 22 0 0.0 9.7 0.00 0.00 0.00 36 1006.2
20260504221556 22 0 0.0 12.9 0.00 0.00 0.00 36 1006.4
20260504220112 22 0 0.0 14.5 0.00 0.00 0.00 35 1006.4
20260504214559 22 0 0.0 11.3 0.00 0.00 0.00 34 1006.6
20260504213100 22 0 0.0 12.9 0.00 0.00 0.00 35 1006.7
20260504211557 23 0 0.0 11.3 0.00 0.00 0.00 33 1006.8